KB1DML-3 Weather Reports


Display with metric or nautical units.
time (UTC)temp
F
wind
direction
speed
MPH
gust
MPH
rain 1hr
in
rain 24hr
in
rain mn
in
humidity
%
barometer
mb
20260903013516 67 180 15.0 18.0 0.00 0.00 0.00 82 1017.7
20260903013015 67 180 14.0 16.0 0.00 0.00 0.00 82 1017.6
20260903012515 67 180 13.0 16.0 0.00 0.00 0.00 82 1017.8
20260903012036 67 180 13.0 16.0 0.00 0.00 0.00 82 1017.8
20260903011516 67 180 11.0 13.0 0.00 0.00 0.00 82 1017.9
20260903011016 67 180 11.0 13.0 0.00 0.00 0.00 82 1018.1
20260903010516 67 180 12.0 16.0 0.00 0.00 0.00 82 1018.0
20260903010015 67 180 12.0 14.0 0.00 0.00 0.00 83 1017.9
20260903005536 67 180 12.0 15.0 0.00 0.00 0.00 82 1017.9
20260903005015 67 180 11.0 14.0 0.00 0.00 0.00 83 1018.0
20260903004516 67 180 12.0 14.0 0.00 0.00 0.00 83 1018.1
20260903004015 67 180 12.0 15.0 0.00 0.00 0.00 83 1017.9
20260903003515 67 180 11.0 14.0 0.00 0.00 0.00 83 1018.0
20260903003015 67 180 11.0 13.0 0.00 0.00 0.00 82 1018.0
20260903002516 67 180 11.0 13.0 0.00 0.00 0.00 82 1018.1
20260903002016 67 180 11.0 13.0 0.00 0.00 0.00 82 1018.1
20260903001556 67 180 11.0 13.0 0.00 0.00 0.00 82 1018.3
20260903001016 68 180 10.0 13.0 0.00 0.00 0.00 81 1018.4
20260903000515 68 180 10.0 14.0 0.00 0.00 0.00 81 1018.5
20260903000056 68 180 10.0 13.0 0.00 0.00 0.00 80 1018.6
20260902235516 68 180 10.0 13.0 0.00 0.00 0.00 80 1018.5
20260902235056 68 158 9.0 12.0 0.00 0.00 0.00 81 1018.5
20260902234515 68 158 10.0 13.0 0.00 0.00 0.00 81 1018.2
20260902234015 68 158 9.0 12.0 0.00 0.00 0.00 81 1018.3
20260902233516 68 158 10.0 15.0 0.00 0.00 0.00 80 1018.4
20260902233015 68 158 11.0 13.0 0.00 0.00 0.00 80 1018.4
20260902232515 68 158 11.0 15.0 0.00 0.00 0.00 80 1018.5
20260902232015 68 158 10.0 16.0 0.00 0.00 0.00 80 1018.4
20260902231516 68 158 11.0 14.0 0.00 0.00 0.00 81 1018.5
20260902231015 68 158 10.0 14.0 0.00 0.00 0.00 80 1018.6
20260902230515 68 158 9.0 14.0 0.00 0.00 0.00 80 1018.6
20260902230015 68 158 8.0 11.0 0.00 0.00 0.00 80 1018.7
20260902225515 68 135 7.0 11.0 0.00 0.00 0.00 80 1018.7
20260902225015 68 135 6.0 9.0 0.00 0.00 0.00 81 1018.9
20260902224516 68 135 6.0 9.0 0.00 0.00 0.00 81 1018.9
20260902224016 68 135 5.0 9.0 0.00 0.00 0.00 81 1019.1
20260902223515 68 135 5.0 8.0 0.00 0.00 0.00 81 1019.1
20260902223016 68 158 5.0 9.0 0.00 0.00 0.00 81 1019.1
20260902222516 68 158 5.0 9.0 0.00 0.00 0.00 81 1019.1
20260902222015 68 135 6.0 10.0 0.00 0.00 0.00 81 1019.2
20260902221515 68 135 6.0 9.0 0.00 0.00 0.00 81 1019.2
20260902221015 68 135 6.0 10.0 0.00 0.00 0.00 81 1019.3
20260902220516 69 135 7.0 9.0 0.00 0.00 0.00 81 1019.1
20260902220016 69 135 5.0 9.0 0.00 0.00 0.00 81 1019.2
20260902215537 69 135 7.0 9.0 0.00 0.00 0.00 80 1019.1
20260902215017 69 135 7.0 9.0 0.00 0.00 0.00 81 1019.0
20260902214517 69 135 7.0 9.0 0.00 0.00 0.00 81 1019.1
20260902214059 69 135 7.0 10.0 0.00 0.00 0.00 81 1018.8
20260902213538 69 135 7.0 10.0 0.00 0.00 0.00 81 1018.9
20260902213017 69 135 7.0 10.0 0.00 0.00 0.00 81 1018.9
20260902212517 69 135 6.0 10.0 0.00 0.00 0.00 81 1019.0
20260902212017 69 135 8.0 12.0 0.00 0.00 0.00 81 1018.8
20260902211517 69 135 8.0 12.0 0.00 0.00 0.00 81 1018.9
20260902211017 69 135 9.0 12.0 0.00 0.00 0.00 81 1018.9
20260902210517 69 113 9.0 11.0 0.00 0.00 0.00 81 1019.0
20260902210017 69 113 9.0 11.0 0.00 0.00 0.00 81 1019.0
20260902205538 69 113 9.0 11.0 0.00 0.00 0.00 81 1019.1
20260902205039 69 113 9.0 11.0 0.00 0.00 0.00 81 1019.2
20260902204517 69 113 9.0 11.0 0.00 0.00 0.00 81 1019.3
20260902204017 69 113 8.0 11.0 0.00 0.00 0.00 81 1019.3
20260902203517 69 113 7.0 9.0 0.00 0.00 0.00 81 1019.4
20260902203017 69 113 9.0 10.0 0.00 0.00 0.00 81 1019.4
20260902202517 69 113 9.0 11.0 0.00 0.00 0.00 81 1019.4
20260902202017 69 113 8.0 11.0 0.00 0.00 0.00 81 1019.5
20260902201518 69 113 9.0 11.0 0.00 0.00 0.00 81 1019.4
20260902201017 69 113 9.0 11.0 0.00 0.00 0.00 81 1019.5
20260902200537 69 113 8.0 11.0 0.00 0.00 0.00 80 1019.6
20260902200017 69 113 8.0 11.0 0.00 0.00 0.00 80 1019.6
20260902195518 69 113 9.0 11.0 0.00 0.00 0.00 80 1019.7
20260902195017 70 113 8.0 10.0 0.00 0.00 0.00 80 1019.8
20260902194518 69 113 8.0 11.0 0.00 0.00 0.00 80 1019.8
20260902194017 69 113 9.0 11.0 0.00 0.00 0.00 80 1019.7
20260902193517 69 135 7.0 9.0 0.00 0.00 0.00 80 1019.7
20260902193017 69 113 8.0 10.0 0.00 0.00 0.00 80 1019.7
20260902192517 69 113 9.0 11.0 0.00 0.00 0.00 80 1019.8
20260902192017 70 113 8.0 11.0 0.00 0.00 0.00 80 1019.7
20260902191517 70 113 9.0 11.0 0.00 0.00 0.00 80 1019.7
20260902191018 70 113 9.0 11.0 0.00 0.00 0.00 80 1019.7
20260902190517 70 113 8.0 10.0 0.00 0.00 0.00 80 1019.8
20260902190037 70 113 7.0 10.0 0.00 0.01 0.00 80 1019.8
20260902185517 70 113 8.0 10.0 0.00 0.01 0.00 80 1019.7
20260902185037 70 113 8.0 10.0 0.00 0.01 0.00 80 1019.8
20260902184517 70 113 8.0 9.0 0.00 0.01 0.00 80 1019.8
20260902184017 70 113 7.0 9.0 0.00 0.01 0.00 80 1019.9
20260902183517 70 113 7.0 9.0 0.00 0.01 0.00 80 1019.9
20260902183017 70 113 6.0 9.0 0.00 0.01 0.00 80 1020.0
20260902182517 70 113 6.0 9.0 0.00 0.01 0.00 80 1020.0
20260902182017 69 113 6.0 9.0 0.00 0.01 0.00 80 1020.0
20260902181537 69 113 7.0 10.0 0.00 0.01 0.00 80 1020.0
20260902181017 70 113 7.0 10.0 0.00 0.01 0.00 80 1019.9
20260902180517 70 113 7.0 9.0 0.00 0.01 0.00 80 1019.9
20260902180017 70 113 7.0 10.0 0.00 0.01 0.00 81 1020.0
20260902175517 70 113 8.0 10.0 0.00 0.01 0.00 81 1020.0
20260902175018 70 113 7.0 9.0 0.00 0.01 0.00 81 1019.9
20260902174517 70 113 7.0 9.0 0.00 0.01 0.00 81 1020.0
20260902174017 70 113 6.0 8.0 0.00 0.01 0.00 81 1020.0
20260902173517 70 113 6.0 8.0 0.00 0.01 0.00 81 1020.1
20260902173017 69 113 6.0 8.0 0.00 0.01 0.00 81 1020.1
20260902172517 69 113 7.0 9.0 0.00 0.01 0.00 81 1020.1
20260902172018 69 113 7.0 9.0 0.00 0.01 0.00 82 1020.1
20260902171517 69 113 8.0 9.0 0.00 0.01 0.00 82 1020.0
20260902171017 69 90 7.0 10.0 0.00 0.01 0.00 83 1020.0
20260902170517 69 90 8.0 11.0 0.00 0.01 0.00 83 1020.0
20260902170036 69 90 8.0 11.0 0.00 0.01 0.00 83 1019.9
20260902165538 68 90 9.0 11.0 0.00 0.01 0.00 83 1020.0
20260902165017 68 68 10.0 12.0 0.00 0.01 0.00 83 1020.0
20260902164558 69 68 10.0 12.0 0.00 0.01 0.00 82 1020.1
20260902164037 69 68 10.0 13.0 0.00 0.01 0.00 82 1020.1
20260902163516 69 68 10.0 12.0 0.00 0.01 0.00 82 1020.2
20260902163017 69 90 10.0 13.0 0.00 0.01 0.00 81 1020.1
20260902162517 69 90 10.0 12.0 0.00 0.01 0.00 81 1020.1
20260902162017 69 90 10.0 13.0 0.00 0.01 0.00 79 1020.1
20260902161537 70 90 11.0 13.0 0.00 0.01 0.00 78 1020.3
20260902161017 70 90 10.0 12.0 0.00 0.01 0.00 78 1020.4
20260902160517 70 90 8.0 11.0 0.00 0.01 0.00 78 1020.5
20260902160017 70 90 7.0 9.0 0.00 0.02 0.00 78 1020.5
20260902155517 70 90 7.0 10.0 0.00 0.02 0.00 79 1020.6
20260902155017 70 90 7.0 10.0 0.00 0.02 0.00 79 1020.6
20260902154516 70 113 7.0 9.0 0.00 0.02 0.00 79 1020.6
20260902154038 70 113 7.0 8.0 0.00 0.02 0.00 79 1020.6
20260902153517 70 113 6.0 9.0 0.00 0.02 0.00 79 1020.7
20260902153017 70 113 6.0 8.0 0.00 0.02 0.00 79 1020.7
20260902152518 70 113 6.0 7.0 0.00 0.02 0.00 79 1020.8
20260902152017 70 113 7.0 9.0 0.00 0.02 0.00 79 1020.6
20260902151537 70 113 6.0 9.0 0.00 0.02 0.00 79 1020.6
20260902151037 69 113 8.0 10.0 0.00 0.02 0.00 79 1020.5
20260902150517 69 113 8.0 10.0 0.00 0.02 0.00 79 1020.5
20260902150037 69 113 9.0 12.0 0.00 0.05 0.00 79 1020.4
20260902145557 70 113 8.0 11.0 0.00 0.05 0.00 79 1020.3
20260902145016 70 113 9.0 11.0 0.00 0.05 0.00 79 1020.2
20260902144517 70 113 9.0 11.0 0.00 0.05 0.00 79 1020.2
20260902144017 70 113 9.0 12.0 0.00 0.05 0.00 80 1020.1
20260902143516 69 113 9.0 12.0 0.00 0.05 0.00 80 1020.1
20260902143017 69 113 11.0 13.0 0.00 0.05 0.00 80 1020.1
20260902142537 69 113 10.0 12.0 0.00 0.05 0.00 80 1020.2
20260902142017 69 113 9.0 12.0 0.00 0.05 0.00 80 1020.1
20260902141517 69 113 10.0 12.0 0.00 0.05 0.00 80 1020.0
20260902141016 69 113 10.0 13.0 0.00 0.05 0.00 81 1019.9
20260902140516 69 113 11.0 13.0 0.00 0.05 0.00 81 1019.8
20260902140037 69 113 9.0 12.0 0.00 0.26 0.00 81 1019.9
20260902135517 69 113 10.0 12.0 0.00 0.26 0.00 81 1019.9
20260902135017 69 113 10.0 13.0 0.00 0.26 0.00 81 1020.0
20260902134517 68 113 10.0 12.0 0.00 0.26 0.00 82 1020.0
20260902134016 68 113 9.0 12.0 0.00 0.26 0.00 82 1020.1
20260902133516 68 113 10.0 12.0 0.00 0.26 0.00 83 1020.0
20260902133016 68 113 9.0 11.0 0.00 0.26 0.00 84 1020.1
20260902132516 68 113 9.0 12.0 0.00 0.26 0.00 84 1020.0
20260902132037 68 113 8.0 10.0 0.00 0.26 0.00 85 1020.0
20260902131516 67 113 8.0 10.0 0.00 0.26 0.00 85 1019.9
20260902131016 67 113 8.0 10.0 0.00 0.26 0.00 86 1019.8
20260902130517 67 113 7.0 9.0 0.00 0.26 0.00 87 1019.9
20260902130016 67 113 8.0 10.0 0.00 0.32 0.00 86 1019.9
20260902125517 67 113 9.0 11.0 0.00 0.32 0.00 86 1019.8
20260902125016 67 90 9.0 11.0 0.00 0.32 0.00 86 1020.0
20260902124517 67 90 9.0 11.0 0.00 0.32 0.00 87 1019.9
20260902124016 67 113 9.0 11.0 0.00 0.32 0.00 87 1019.9
20260902123517 67 113 9.0 11.0 0.00 0.32 0.00 87 1019.9
20260902123016 67 90 9.0 12.0 0.00 0.32 0.00 87 1019.9
20260902122538 67 90 9.0 11.0 0.00 0.32 0.00 87 1020.1
20260902122016 67 90 9.0 12.0 0.00 0.32 0.00 87 1020.0
20260902121517 67 90 10.0 12.0 0.00 0.32 0.00 87 1020.0
20260902121016 67 90 11.0 13.0 0.00 0.32 0.00 87 1020.1
20260902120516 66 90 11.0 15.0 0.00 0.32 0.00 87 1020.0
20260902120016 67 90 11.0 14.0 0.00 0.32 0.00 87 1020.1
20260902115537 66 90 12.0 15.0 0.00 0.32 0.00 87 1020.1
20260902115036 67 90 13.0 16.0 0.00 0.32 0.00 87 1020.0
20260902114517 67 90 15.0 17.0 0.00 0.32 0.00 86 1019.8
20260902114016 67 90 15.0 19.0 0.00 0.32 0.00 86 1019.7
20260902113536 67 90 14.0 17.0 0.00 0.32 0.00 86 1019.7
20260902113017 67 90 15.0 17.0 0.00 0.32 0.00 86 1019.7
20260902112516 67 90 15.0 19.0 0.00 0.32 0.00 86 1019.6
20260902112017 67 90 16.0 19.0 0.00 0.32 0.00 86 1019.5
20260902111516 67 90 16.0 19.0 0.00 0.32 0.00 86 1019.5
20260902111016 67 90 16.0 20.0 0.00 0.32 0.00 86 1019.5
20260902110516 67 90 16.0 19.0 0.00 0.32 0.00 86 1019.5
20260902110016 67 90 16.0 19.0 0.00 0.32 0.00 86 1019.5
20260902105516 66 90 16.0 19.0 0.00 0.32 0.00 86 1019.3
20260902105016 66 90 16.0 19.0 0.00 0.32 0.00 86 1019.2
20260902104517 66 90 16.0 18.0 0.00 0.32 0.00 85 1019.3
20260902104016 66 90 16.0 20.0 0.00 0.32 0.00 85 1019.4
20260902103517 66 90 17.0 21.0 0.00 0.32 0.00 85 1019.3
20260902103016 66 90 18.0 21.0 0.00 0.32 0.00 85 1019.2
20260902102517 66 90 18.0 21.0 0.00 0.32 0.00 84 1019.1
20260902102017 66 90 18.0 21.0 0.00 0.32 0.00 84 1019.0
20260902101516 67 90 18.0 20.0 0.00 0.32 0.00 84 1018.9
20260902101016 67 90 17.0 21.0 0.00 0.32 0.00 83 1019.0
20260902100557 67 90 16.0 19.0 0.00 0.32 0.00 83 1019.0
20260902100016 67 90 16.0 19.0 0.00 0.32 0.00 83 1019.0
20260902095517 67 68 15.0 18.0 0.00 0.32 0.00 82 1019.0
20260902095036 67 90 14.0 17.0 0.00 0.32 0.00 83 1019.0
20260902094536 66 90 15.0 18.0 0.00 0.32 0.00 82 1019.0
20260902094016 66 68 14.0 16.0 0.00 0.32 0.00 83 1018.9
20260902093516 66 68 14.0 16.0 0.00 0.32 0.00 83 1018.9
20260902093016 66 90 14.0 17.0 0.00 0.32 0.00 83 1018.7
20260902092517 67 90 14.0 16.0 0.00 0.32 0.00 83 1018.7
20260902092036 67 90 15.0 17.0 0.00 0.32 0.00 83 1018.7
20260902091516 66 90 14.0 18.0 0.00 0.32 0.00 82 1018.6
20260902091016 66 90 15.0 18.0 0.00 0.32 0.00 82 1018.5
20260902090516 66 90 14.0 17.0 0.00 0.32 0.00 82 1018.6
20260902090016 66 90 13.0 15.0 0.00 0.32 0.00 83 1018.6
20260902085516 66 90 12.0 15.0 0.00 0.32 0.00 84 1018.8
20260902085037 66 90 11.0 14.0 0.00 0.32 0.00 84 1018.8
20260902084536 66 90 11.0 13.0 0.00 0.32 0.00 84 1018.8
20260902084016 66 68 10.0 11.0 0.00 0.32 0.00 85 1018.9
20260902083516 66 68 9.0 11.0 0.00 0.32 0.00 85 1018.9
20260902083016 66 68 10.0 12.0 0.00 0.32 0.00 85 1018.9
20260902082516 66 68 10.0 11.0 0.00 0.32 0.00 85 1018.9
20260902082016 66 68 10.0 12.0 0.00 0.32 0.00 85 1018.9
20260902081516 66 68 9.0 11.0 0.00 0.32 0.00 85 1018.9
20260902081016 66 68 10.0 11.0 0.00 0.32 0.00 86 1018.9
20260902080516 66 68 8.0 10.0 0.00 0.32 0.00 86 1018.9
20260902080016 66 68 8.0 9.0 0.00 0.32 0.00 86 1018.9
20260902075516 66 68 7.0 9.0 0.00 0.32 0.00 86 1018.9
20260902075015 66 68 6.0 8.0 0.00 0.32 0.00 86 1018.8
20260902074517 65 45 4.0 5.0 0.00 0.32 0.00 86 1018.7
20260902074016 65 23 5.0 6.0 0.00 0.32 0.00 86 1018.7
20260902073516 65 23 5.0 6.0 0.00 0.32 0.00 86 1018.6
20260902073016 65 23 5.0 6.0 0.00 0.32 0.00 85 1018.5
20260902072515 65 23 4.0 5.0 0.00 0.32 0.00 85 1018.4
20260902072016 65 338 2.0 4.0 0.00 0.32 0.00 85 1018.6
20260902071516 65 338 3.0 4.0 0.00 0.32 0.00 85 1018.6
20260902071016 65 338 2.0 4.0 0.00 0.32 0.00 85 1018.5
20260902070516 65 23 3.0 4.0 0.00 0.32 0.00 85 1018.6
20260902070036 65 23 4.0 6.0 0.00 0.32 0.00 85 1018.5
20260902065536 65 23 4.0 5.0 0.00 0.32 0.00 85 1018.5
20260902065057 65 338 3.0 5.0 0.00 0.32 0.00 85 1018.5
20260902064515 66 338 2.0 4.0 0.00 0.32 0.00 85 1018.6
20260902064015 66 338 2.0 3.0 0.00 0.32 0.00 84 1018.7
20260902063516 66 23 3.0 4.0 0.00 0.32 0.00 84 1018.7
20260902063036 66 23 4.0 4.0 0.00 0.32 0.00 84 1018.6
20260902062516 66 23 4.0 4.0 0.00 0.32 0.00 84 1018.6
20260902062036 66 23 4.0 5.0 0.00 0.32 0.00 84 1018.7
20260902061516 66 23 4.0 5.0 0.00 0.32 0.00 84 1018.7
20260902061016 66 45 4.0 5.0 0.00 0.32 0.00 83 1018.7
20260902060516 66 23 3.0 4.0 0.00 0.32 0.00 83 1018.7
20260902060016 66 23 2.0 3.0 0.00 0.32 0.00 83 1018.7
20260902055516 67 0 1.0 2.0 0.00 0.32 0.00 83 1018.7
20260902055016 67 225 1.0 3.0 0.00 0.32 0.00 83 1018.7
20260902054516 67 203 2.0 3.0 0.00 0.32 0.00 83 1018.6
20260902054016 67 180 1.0 2.0 0.00 0.32 0.00 83 1018.5
20260902053516 67 135 1.0 2.0 0.00 0.32 0.00 83 1018.4
20260902053016 67 135 2.0 4.0 0.00 0.32 0.00 83 1018.3
20260902052536 67 158 2.0 4.0 0.00 0.32 0.00 82 1018.2
20260902052016 67 135 2.0 4.0 0.00 0.32 0.00 82 1018.1
20260902051516 66 135 2.0 3.0 0.00 0.32 0.00 82 1018.0
20260902051016 66 135 2.0 3.0 0.00 0.32 0.00 82 1017.9
20260902050516 66 135 2.0 3.0 0.00 0.32 0.00 82 1017.9
20260902050036 66 113 2.0 3.0 0.00 0.32 0.00 82 1017.8
20260902045516 67 113 2.0 3.0 0.00 0.32 0.00 82 1017.9
20260902045015 67 135 2.0 4.0 0.00 0.32 0.00 82 1017.8
20260902044515 66 113 3.0 5.0 0.00 0.32 0.00 82 1017.8
20260902044016 66 113 3.0 6.0 0.00 0.32 0.00 82 1017.7
20260902043515 66 135 3.0 5.0 0.00 0.32 0.00 81 1017.6
20260902043016 66 135 3.0 4.0 0.00 0.32 0.00 81 1017.5
20260902042557 66 135 3.0 6.0 0.00 0.32 0.00 81 1017.5
20260902042016 66 135 3.0 5.0 0.00 0.32 0.00 81 1017.5
20260902041515 66 113 3.0 4.0 0.00 0.32 0.00 81 1017.5
20260902041015 66 135 3.0 4.0 0.00 0.32 0.00 81 1017.5
20260902040516 66 135 4.0 6.0 0.00 0.32 0.00 81 1017.2
20260902040016 66 158 3.0 5.0 0.00 0.32 0.32 80 1017.2
20260902035516 66 158 3.0 5.0 0.00 0.32 0.32 80 1017.2
20260902035016 66 158 3.0 5.0 0.00 0.32 0.32 79 1017.1
20260902034516 66 158 3.0 5.0 0.00 0.32 0.32 78 1017.2
20260902034016 66 158 2.0 4.0 0.00 0.32 0.32 78 1017.3
20260902033516 66 158 2.0 4.0 0.00 0.32 0.32 79 1017.3
20260902033016 66 180 3.0 4.0 0.00 0.32 0.32 79 1017.4
20260902032516 66 180 3.0 5.0 0.00 0.32 0.32 79 1017.2
20260902032016 66 158 3.0 6.0 0.00 0.32 0.32 80 1017.2
20260902031517 66 158 4.0 5.0 0.00 0.32 0.32 80 1017.2
20260902031036 66 158 3.0 5.0 0.00 0.32 0.32 81 1017.1
20260902030516 65 158 3.0 5.0 0.00 0.32 0.32 81 1017.1
20260902030016 65 135 2.0 4.0 0.00 0.32 0.32 82 1017.2
20260902025516 66 113 3.0 4.0 0.00 0.32 0.32 82 1017.1
20260902025036 66 113 2.0 3.0 0.00 0.32 0.32 83 1017.1
20260902024516 66 90 2.0 3.0 0.00 0.32 0.32 83 1017.2
20260902024016 66 68 2.0 3.0 0.00 0.32 0.32 83 1017.2
20260902023516 66 68 2.0 3.0 0.00 0.32 0.32 83 1017.2
20260902023015 66 45 1.0 2.0 0.00 0.32 0.32 82 1017.3
20260902022557 66 315 1.0 2.0 0.00 0.32 0.32 82 1017.3
20260902022016 66 293 1.0 2.0 0.00 0.32 0.32 82 1017.4
20260902021516 66 248 2.0 3.0 0.00 0.32 0.32 82 1017.4
20260902021016 66 248 3.0 3.0 0.00 0.32 0.32 82 1017.4
20260902020516 66 225 2.0 3.0 0.00 0.32 0.32 82 1017.3
20260902020036 66 225 2.0 3.0 0.00 0.32 0.32 82 1017.2
20260902015536 66 203 3.0 4.0 0.00 0.32 0.32 82 1017.2
20260902015037 66 203 3.0 4.0 0.00 0.32 0.32 82 1017.1
20260902014516 66 203 4.0 5.0 0.00 0.32 0.32 82 1017.2
20260902014015 66 203 4.0 5.0 0.00 0.32 0.32 81 1017.1